Location: El Álamo
(40.2307°N, 3.9945°W)
Time: 03:28:27
(UTC+00:00)

Okean 1 - Pass Details

Date: 19 May 2025
Orbit: 478 x 498 km, 82.5° (Epoch: 23 June)

Event Time Altitude Azimuth Distance (km) Brightness Sun altitude
Exits shadow 21:43:37 34° 64° (ENE) 831 4.1 -20.5°
Drops below altitude 10° 21:46:19 10° 24° (NNE) 1,683 6.1 -20.8°
Sets 21:48:30 0° 16° (NNE) 2,565 7.3 -21.1°
